QPF
0.00 0.00 0.00 0.00 0.00 0.00 0.00 0.00 0.00 0.00 0.00 0.00 0.00 0.00 0.00 0.00 0.00 0.00 0.00 0.00 0.00 0.00 0.00 0.00 0.00 0.00 0.00 0.00 0.00 0.00 0.00 0.00 0.00 0.00 0.00 0.00 0.00 0.00 0.00 0.00 0.00 0.00 0.00 0.00 0.00 0.00 0.00 0.00 0.00
0.00 0.00 0.00 0.00 0.00 0.00 0.00 0.00 0.00 0.00 0.00 0.00 0.00 0.00 0.00 0.00 0.00 0.00 0.00 0.01 0.00 0.00 0.00 0.00 0.00 0.00 0.00 0.00 0.00 0.00 0.00 0.00 0.00 0.00 0.00 0.00 0.00 0.00 0.00 0.00 0.00 0.00 0.00 0.00 0.00 0.00 0.00 0.00 0.00
0.00 0.00 0.00 0.00 0.00 0.00 0.00 0.00 0.00 0.00 0.00 0.00 0.00 0.00 0.00 0.00 0.00 0.00 0.00 0.00 0.00 0.00 0.00 0.00 0.00 0.00 0.00 0.00 0.00 0.00 0.00 0.00 0.00 0.00 0.00 0.00 0.00 0.00 0.00 0.00 0.00 0.00 0.00 0.00 0.00 0.00 0.00 0.00 0.00
0.00 0.00 0.00 0.00 0.00 0.00 0.00 0.00 0.00 0.00 0.00 0.00 0.00 0.00 0.00 0.00 0.00 0.00 0.00 0.00 0.00 0.00 0.00 0.00 0.00 0.00 0.01 0.01 0.01 0.00 0.00 0.00 0.00 0.00 0.00 0.00 0.00 0.00 0.00 0.00 0.00 0.00 0.00 0.00 0.00 0.00 0.00 0.00 0.00
0.00 0.00 0.00 0.00 0.00 0.00 0.00 0.00 0.00 0.00 0.00 0.00 0.00 0.00 0.00 0.00 0.00 0.00 0.00 0.00 0.00 0.00 0.00 0.01 0.01 0.01 0.01 0.01 0.01 0.00 0.00 0.00 0.00 0.00 0.00 0.00 0.00 0.00 0.00 0.00 0.00 0.00 0.00 0.00 0.00 0.00 0.00 0.00 0.00
0.00 0.00 0.00 0.00 0.00 0.00 0.00 0.00 0.00 0.00 0.00 0.00 0.00 0.00 0.00 0.00 0.00 0.00 0.00 0.00 0.00 0.00 0.01 0.02 0.01 0.01 0.01 0.00 0.00 0.00 0.00 0.00 0.00 0.00 0.00 0.00 0.00 0.00 0.00 0.00 0.00 0.00 0.00 0.00 0.00 0.00 0.00 0.00 0.00
0.00 0.00 0.00 0.00 0.00 0.00 0.00 0.00 0.00 0.00 0.00 0.00 0.00 0.00 0.00 0.00 0.00 0.00 0.00 0.00 0.00 0.00 0.01 0.02 0.02 0.02 0.02 0.00 0.00 0.00 0.00 0.00 0.00 0.00 0.00 0.00 0.00 0.00 0.00 0.00 0.00 0.00 0.00 0.00 0.00 0.00 0.00 0.00 0.00
0.00 0.00 0.00 0.00 0.00 0.00 0.00 0.00 0.00 0.00 0.00 0.00 0.00 0.00 0.00 0.00 0.00 0.00 0.00 0.00 0.00 0.00 0.01 0.01 0.00 0.01 0.03 0.01 0.00 0.00 0.00 0.00 0.00 0.00 0.00 0.00 0.00 0.00 0.00 0.00 0.00 0.00 0.00 0.00 0.00 0.00 0.00 0.00 0.00
0.00 0.00 0.00 0.00 0.00 0.00 0.00 0.00 0.00 0.00 0.00 0.00 0.00 0.00 0.00 0.00 0.00 0.00 0.00 0.00 0.00 0.00 0.00 0.00 0.00 0.00 0.01 0.00 0.00 0.00 0.00 0.00 0.00 0.00 0.00 0.00 0.00 0.00 0.01 0.01 0.00 0.00 0.00 0.00 0.00 0.00 0.00 0.00 0.00
0.00 0.00 0.00 0.00 0.00 0.00 0.00 0.00 0.00 0.00 0.00 0.00 0.00 0.00 0.00 0.00 0.00 0.00 0.00 0.00 0.00 0.00 0.00 0.00 0.00 0.00 0.00 0.00 0.00 0.00 0.00 0.00 0.00 0.00 0.00 0.00 0.00 0.01 0.03 0.03 0.02 0.00 0.00 0.00 0.00 0.00 0.00 0.00 0.00
0.00 0.00 0.00 0.00 0.00 0.00 0.00 0.00 0.00 0.00 0.00 0.00 0.00 0.00 0.00 0.00 0.00 0.00 0.00 0.00 0.00 0.00 0.00 0.00 0.00 0.00 0.00 0.00 0.00 0.00 0.00 0.00 0.00 0.00 0.00 0.02 0.01 0.03 0.04 0.03 0.01 0.00 0.00 0.00 0.00 0.00 0.00 0.00 0.00
0.00 0.00 0.00 0.00 0.00 0.00 0.00 0.00 0.00 0.00 0.00 0.00 0.00 0.00 0.00 0.00 0.00 0.00 0.00 0.00 0.00 0.00 0.00 0.00 0.00 0.00 0.00 0.00 0.00 0.00 0.00 0.00 0.00 0.00 0.01 0.06 0.05 0.05 0.04 0.02 0.00 0.00 0.00 0.00 0.00 0.00 0.00 0.00 0.00
0.00 0.00 0.00 0.00 0.00 0.00 0.00 0.00 0.00 0.00 0.00 0.00 0.00 0.00 0.00 0.00 0.00 0.00 0.00 0.00 0.00 0.00 0.00 0.00 0.00 0.00 0.00 0.00 0.00 0.00 0.00 0.00 0.00 0.01 0.02 0.03 0.04 0.03 0.01 0.00 0.00 0.00 0.00 0.00 0.00 0.00 0.00 0.00 0.00
0.00 0.00 0.00 0.00 0.00 0.00 0.00 0.00 0.00 0.00 0.00 0.00 0.00 0.00 0.00 0.00 0.00 0.00 0.00 0.00 0.00 0.00 0.00 0.00 0.00 0.00 0.00 0.00 0.00 0.00 0.00 0.00 0.00 0.01 0.01 0.01 0.01 0.00 0.00 0.00 0.00 0.00 0.00 0.00 0.00 0.00 0.00 0.00 0.00
0.00 0.00 0.00 0.00 0.00 0.00 0.00 0.00 0.00 0.00 0.00 0.00 0.00 0.00 0.00 0.00 0.00 0.00 0.00 0.00 0.00 0.00 0.00 0.00 0.00 0.00 0.00 0.00 0.00 0.00 0.00 0.00 0.00 0.00 0.00 0.00 0.00 0.00 0.00 0.00 0.00 0.00 0.00 0.00 0.00 0.00 0.00 0.00 0.00
0.00 0.00 0.00 0.00 0.00 0.00 0.00 0.00 0.00 0.00 0.00 0.00 0.00 0.00 0.00 0.00 0.00 0.00 0.00 0.00 0.00 0.00 0.00 0.00 0.00 0.00 0.00 0.00 0.00 0.00 0.00 0.00 0.00 0.00 0.00 0.00 0.00 0.00 0.00 0.00 0.00 0.00 0.00 0.00 0.00 0.00 0.00 0.00 0.00
0.00 0.00 0.00 0.00 0.00 0.00 0.00 0.00 0.00 0.00 0.00 0.00 0.00 0.00 0.00 0.00 0.00 0.00 0.00 0.00 0.00 0.00 0.00 0.00 0.00 0.00 0.00 0.00 0.00 0.00 0.00 0.00 0.00 0.00 0.00 0.00 0.00 0.00 0.00 0.00 0.00 0.00 0.00 0.00 0.00 0.00 0.00 0.00 0.00
0.00 0.00 0.00 0.00 0.00 0.00 0.00 0.00 0.00 0.00 0.00 0.00 0.00 0.00 0.00 0.00 0.00 0.00 0.00 0.00 0.00 0.00 0.00 0.00 0.00 0.00 0.00 0.00 0.00 0.00 0.00 0.00 0.00 0.00 0.00 0.00 0.00 0.00 0.00 0.00 0.00 0.00 0.00 0.00 0.00 0.00 0.00 0.00 0.00
0.00 0.00 0.00 0.00 0.00 0.00 0.00 0.00 0.00 0.00 0.00 0.00 0.00 0.00 0.00 0.00 0.00 0.00 0.00 0.00 0.00 0.00 0.00 0.00 0.00 0.00 0.00 0.00 0.00 0.00 0.00 0.00 0.00 0.00 0.00 0.00 0.00 0.00 0.00 0.00 0.00 0.00 0.00 0.00 0.00 0.00 0.00 0.00 0.00
0.00 0.00 0.00 0.00 0.00 0.00 0.00 0.00 0.00 0.00 0.00 0.00 0.00 0.00 0.00 0.00 0.00 0.00 0.00 0.00 0.00 0.00 0.00 0.00 0.00 0.00 0.00 0.01 0.01 0.00 0.00 0.00 0.00 0.00 0.00 0.00 0.00 0.00 0.00 0.00 0.00 0.00 0.00 0.00 0.00 0.00 0.00 0.00 0.00
0.00 0.00 0.00 0.00 0.00 0.00 0.00 0.00 0.00 0.00 0.00 0.00 0.00 0.00 0.00 0.00 0.00 0.00 0.00 0.00 0.00 0.00 0.00 0.00 0.01 0.01 0.01 0.01 0.01 0.01 0.00 0.00 0.00 0.00 0.00 0.00 0.00 0.00 0.00 0.00 0.00 0.00 0.00 0.00 0.00 0.00 0.00 0.00 0.00
0.00 0.00 0.00 0.00 0.00 0.00 0.00 0.00 0.00 0.00 0.00 0.00 0.00 0.00 0.00 0.00 0.00 0.00 0.00 0.00 0.00 0.00 0.00 0.01 0.01 0.01 0.00 0.00 0.00 0.00 0.00 0.00 0.00 0.00 0.00 0.00 0.00 0.00 0.00 0.00 0.00 0.00 0.00 0.00 0.00 0.00 0.00 0.00 0.00
0.00 0.00 0.00 0.00 0.00 0.00 0.00 0.00 0.00 0.00 0.00 0.00 0.00 0.00 0.00 0.00 0.00 0.00 0.00 0.00 0.00 0.00 0.00 0.01 0.02 0.01 0.00 0.00 0.00 0.00 0.00 0.00 0.00 0.00 0.00 0.00 0.00 0.00 0.00 0.00 0.00 0.00 0.00 0.00 0.00 0.00 0.00 0.00 0.00
0.00 0.00 0.00 0.00 0.00 0.00 0.00 0.00 0.00 0.00 0.00 0.00 0.00 0.00 0.00 0.00 0.00 0.00 0.00 0.00 0.00 0.00 0.01 0.03 0.03 0.02 0.02 0.00 0.00 0.00 0.00 0.00 0.00 0.00 0.00 0.00 0.00 0.00 0.00 0.00 0.00 0.00 0.00 0.00 0.00 0.00 0.00 0.00 0.00
0.00 0.00 0.00 0.00 0.00 0.00 0.00 0.00 0.00 0.00 0.00 0.00 0.00 0.00 0.00 0.00 0.00 0.00 0.00 0.00 0.00 0.00 0.02 0.03 0.04 0.03 0.02 0.00 0.00 0.00 0.00 0.00 0.00 0.00 0.00 0.00 0.00 0.00 0.00 0.00 0.00 0.00 0.00 0.00 0.00 0.00 0.00 0.00 0.00
0.00 0.00 0.00 0.00 0.00 0.00 0.00 0.00 0.00 0.00 0.00 0.00 0.00 0.00 0.00 0.00 0.00 0.00 0.00 0.00 0.00 0.00 0.01 0.02 0.03 0.03 0.01 0.00 0.00 0.00 0.00 0.00 0.00 0.00 0.00 0.00 0.00 0.00 0.00 0.00 0.00 0.00 0.00 0.00 0.00 0.00 0.00 0.00 0.00
0.00 0.00 0.00 0.00 0.00 0.00 0.00 0.00 0.00 0.00 0.00 0.00 0.00 0.00 0.00 0.00 0.00 0.00 0.00 0.00 0.00 0.01 0.03 0.06 0.06 0.05 0.02 0.00 0.00 0.00 0.00 0.00 0.00 0.00 0.00 0.00 0.00 0.00 0.00 0.00 0.00 0.00 0.00 0.00 0.00 0.00 0.00 0.00 0.00
0.00 0.00 0.00 0.00 0.00 0.00 0.00 0.00 0.00 0.00 0.00 0.00 0.00 0.00 0.00 0.00 0.00 0.00 0.00 0.00 0.01 0.02 0.04 0.05 0.04 0.03 0.01 0.00 0.00 0.00 0.00 0.00 0.00 0.00 0.00 0.00 0.00 0.00 0.00 0.00 0.00 0.00 0.00 0.00 0.00 0.00 0.00 0.00 0.00
0.00 0.00 0.00 0.00 0.00 0.00 0.00 0.00 0.00 0.00 0.00 0.00 0.00 0.00 0.00 0.00 0.00 0.00 0.00 0.01 0.02 0.02 0.02 0.01 0.01 0.00 0.00 0.00 0.00 0.00 0.00 0.00 0.00 0.00 0.00 0.00 0.00 0.00 0.00 0.00 0.00 0.00 0.00 0.00 0.00 0.00 0.00 0.00 0.00
0.00 0.00 0.00 0.00 0.00 0.00 0.00 0.00 0.00 0.00 0.00 0.03 0.06 0.04 0.01 0.00 0.00 0.00 0.01 0.01 0.02 0.02 0.01 0.01 0.00 0.00 0.00 0.00 0.00 0.00 0.00 0.00 0.00 0.00 0.00 0.00 0.00 0.00 0.00 0.00 0.00 0.00 0.00 0.00 0.00 0.00 0.00 0.00 0.00
MSLP
1010.65 1011.09 1011.27 1011.68 1013.13 1013.78 1013.48 1012.26 1010.93 1009.60 1008.93 1008.50 1008.51 1008.68 1008.92 1008.86 1009.05 1009.91 1009.48 1009.46 1009.40 1009.90 1010.09 1010.38 1010.76 1011.14 1011.55 1011.98 1012.24 1012.44 1012.52 1012.60 1012.75 1012.95 1013.16 1013.48 1013.79 1014.00 1014.27 1014.43 1014.71 1015.01 1015.30 1015.55 1015.73 1015.97 1016.22 1016.44 1016.48
1010.84 1011.16 1011.58 1012.42 1013.80 1014.41 1013.10 1011.21 1010.21 1008.81 1007.89 1008.17 1008.36 1008.91 1009.00 1009.12 1009.17 1009.61 1009.66 1009.66 1009.62 1009.74 1010.10 1010.39 1010.62 1010.94 1011.38 1011.90 1012.18 1012.42 1012.65 1012.81 1012.98 1013.18 1013.50 1013.80 1014.06 1014.33 1014.58 1014.79 1015.10 1015.39 1015.65 1015.88 1016.10 1016.30 1016.37 1016.56 1016.74
1010.70 1010.97 1012.24 1013.09 1014.09 1013.95 1012.83 1010.60 1009.48 1008.03 1007.62 1007.75 1008.44 1008.91 1009.18 1009.55 1009.63 1009.66 1009.71 1009.76 1009.82 1010.26 1010.35 1010.63 1010.75 1010.83 1011.27 1011.75 1012.13 1012.43 1012.72 1013.01 1013.28 1013.55 1013.80 1014.08 1014.33 1014.60 1014.91 1015.19 1015.46 1015.67 1015.92 1016.16 1016.37 1016.56 1016.65 1016.73 1016.94
1010.74 1011.70 1013.06 1013.37 1013.70 1012.93 1011.68 1009.66 1008.69 1007.62 1007.31 1007.21 1008.03 1009.07 1009.56 1009.80 1009.71 1009.85 1009.86 1009.97 1010.26 1010.46 1010.57 1010.62 1010.87 1011.15 1011.45 1011.83 1012.23 1012.58 1012.94 1013.16 1013.45 1013.85 1014.15 1014.30 1014.60 1014.80 1015.20 1015.48 1015.75 1016.04 1016.25 1016.42 1016.46 1016.64 1016.94 1016.76 1017.10
1011.17 1012.32 1013.30 1013.65 1012.97 1011.80 1010.40 1009.09 1008.34 1007.72 1007.40 1007.40 1007.91 1008.90 1009.62 1009.83 1009.97 1009.97 1010.05 1010.22 1010.41 1010.85 1011.00 1011.12 1011.35 1011.51 1011.75 1011.90 1012.40 1012.93 1013.16 1013.41 1013.73 1014.19 1014.55 1014.81 1015.08 1015.36 1015.77 1015.96 1016.06 1016.17 1016.39 1016.58 1016.67 1016.47 1017.02 1016.82 1017.34
1011.78 1012.86 1013.78 1013.65 1012.45 1010.98 1009.57 1008.37 1007.93 1007.35 1007.49 1007.67 1008.14 1009.04 1009.63 1009.78 1010.18 1010.44 1010.43 1010.75 1010.77 1010.62 1011.14 1011.22 1011.21 1011.59 1012.15 1012.53 1012.70 1013.11 1013.50 1013.79 1014.17 1014.60 1014.93 1015.28 1015.62 1015.93 1016.33 1016.50 1016.64 1016.62 1016.40 1016.53 1016.86 1016.75 1016.74 1017.27 1017.48
1011.89 1013.02 1013.26 1012.78 1011.81 1010.48 1008.78 1007.68 1007.45 1007.08 1007.41 1007.84 1008.18 1009.21 1009.97 1009.99 1009.91 1010.16 1010.76 1010.95 1011.21 1011.30 1011.09 1011.07 1011.63 1011.79 1012.29 1013.00 1013.20 1013.53 1013.71 1014.01 1014.47 1014.93 1015.31 1015.76 1016.07 1016.19 1016.52 1016.74 1016.93 1017.06 1017.20 1016.20 1017.28 1017.33 1016.68 1017.64 1017.66
1011.38 1012.47 1012.94 1012.23 1011.47 1009.76 1008.02 1007.33 1006.80 1007.07 1007.33 1007.75 1008.30 1009.02 1009.34 1009.23 1010.12 1010.53 1010.64 1011.11 1011.38 1011.72 1011.74 1011.87 1011.60 1012.08 1012.51 1013.14 1013.50 1013.81 1014.11 1014.38 1014.84 1015.37 1015.68 1016.04 1016.16 1016.45 1016.60 1016.85 1017.05 1017.39 1017.30 1017.29 1017.16 1017.17 1017.62 1017.79 1018.07
1010.48 1011.91 1012.45 1011.66 1010.86 1009.18 1007.83 1007.50 1006.46 1006.53 1007.33 1008.27 1008.45 1008.69 1008.98 1009.28 1010.32 1010.71 1010.99 1011.40 1011.75 1011.95 1012.17 1012.26 1012.59 1012.63 1012.81 1013.44 1013.86 1014.17 1014.42 1014.79 1015.28 1015.68 1016.10 1016.40 1016.73 1016.86 1016.89 1016.97 1017.13 1017.55 1018.01 1017.52 1016.47 1018.02 1018.13 1018.30 1018.34
1009.95 1010.87 1010.36 1009.46 1009.15 1008.54 1007.79 1007.71 1006.99 1006.99 1007.38 1008.13 1008.68 1008.92 1008.82 1009.19 1010.03 1010.56 1010.72 1010.82 1011.52 1012.08 1012.49 1012.78 1013.00 1013.26 1013.23 1013.47 1014.01 1014.51 1014.70 1015.17 1015.55 1016.01 1016.42 1016.67 1016.87 1016.99 1017.18 1017.44 1017.60 1017.89 1018.29 1017.82 1017.77 1018.25 1018.65 1018.91 1018.94
1009.83 1009.61 1009.22 1008.72 1008.18 1008.09 1007.62 1007.26 1006.88 1006.77 1007.16 1007.03 1007.55 1008.19 1009.01 1009.34 1009.62 1010.07 1010.40 1010.76 1010.92 1011.63 1012.43 1012.60 1013.07 1013.25 1013.50 1014.01 1014.26 1014.64 1015.24 1015.73 1015.99 1016.16 1016.47 1016.72 1017.07 1017.39 1017.68 1017.97 1018.43 1018.54 1018.79 1018.67 1018.71 1019.02 1019.17 1019.16 1019.33
1009.79 1009.11 1008.81 1008.25 1007.78 1007.82 1007.58 1007.06 1006.80 1006.62 1006.12 1006.04 1006.71 1007.59 1008.80 1008.94 1009.01 1009.12 1009.80 1010.17 1010.84 1011.22 1011.69 1012.46 1013.09 1013.35 1013.41 1013.66 1014.57 1014.99 1015.23 1015.71 1016.09 1016.33 1016.52 1016.88 1017.42 1017.83 1017.89 1018.49 1018.99 1018.99 1019.20 1019.18 1019.15 1019.44 1019.59 1019.53 1019.63
1009.42 1008.95 1008.65 1008.26 1007.83 1007.56 1007.29 1006.95 1006.57 1006.19 1005.75 1006.34 1006.83 1007.44 1008.13 1008.49 1008.51 1008.92 1009.14 1009.84 1010.57 1011.05 1011.48 1011.95 1012.55 1013.03 1013.02 1013.70 1014.21 1015.00 1015.44 1015.72 1015.99 1016.34 1016.51 1016.80 1017.40 1017.81 1018.42 1018.60 1019.13 1019.27 1019.43 1019.42 1019.55 1019.69 1019.76 1020.01 1020.23
1009.20 1008.98 1008.45 1007.92 1007.37 1007.17 1006.99 1006.51 1006.50 1005.81 1006.14 1006.75 1007.19 1007.35 1007.25 1007.46 1007.65 1008.47 1008.84 1009.19 1010.28 1010.76 1011.12 1011.94 1012.43 1012.73 1013.32 1013.31 1013.88 1014.70 1015.28 1015.73 1016.13 1016.47 1016.75 1017.09 1017.29 1017.93 1018.60 1018.76 1019.18 1019.41 1019.59 1019.78 1019.87 1019.89 1020.16 1020.68 1020.90
1009.29 1009.26 1008.60 1007.62 1007.09 1006.81 1006.47 1006.53 1006.20 1005.59 1006.06 1006.80 1007.30 1007.83 1007.90 1007.49 1007.65 1007.22 1007.80 1008.47 1009.26 1010.51 1011.27 1011.46 1012.31 1013.13 1013.61 1014.31 1014.55 1014.85 1015.24 1015.68 1016.13 1016.39 1016.77 1017.22 1017.49 1017.86 1018.46 1018.89 1019.20 1019.41 1019.72 1019.86 1020.00 1020.34 1020.60 1020.98 1021.44
1009.84 1009.93 1009.48 1007.71 1007.18 1006.45 1006.55 1006.30 1005.53 1005.58 1006.19 1006.62 1007.31 1007.62 1007.85 1007.83 1007.48 1007.63 1008.00 1008.24 1008.74 1009.55 1010.43 1011.38 1011.96 1012.59 1013.38 1013.92 1014.49 1015.01 1015.28 1015.64 1015.95 1016.35 1016.70 1017.08 1017.39 1017.83 1018.39 1018.98 1019.33 1019.50 1019.79 1020.08 1020.33 1020.69 1021.08 1021.60 1022.18
1010.58 1010.48 1009.83 1008.89 1007.40 1007.18 1006.84 1006.25 1005.58 1005.38 1006.10 1006.45 1006.71 1007.17 1007.35 1007.50 1007.67 1007.72 1008.13 1008.60 1009.04 1009.50 1010.53 1011.17 1011.70 1012.47 1012.99 1013.63 1014.38 1014.87 1015.47 1015.54 1016.20 1016.28 1016.45 1016.88 1017.45 1017.86 1018.29 1018.87 1019.34 1019.47 1019.83 1020.36 1020.72 1021.17 1021.22 1021.95 1022.90
1010.86 1010.78 1010.25 1009.83 1008.52 1007.81 1007.67 1006.26 1005.87 1005.64 1005.99 1006.04 1006.32 1006.59 1006.86 1006.72 1006.30 1007.34 1007.99 1008.59 1009.31 1009.45 1009.78 1010.68 1011.43 1012.52 1013.10 1013.53 1014.25 1015.12 1015.61 1016.18 1015.98 1016.51 1016.59 1016.60 1017.23 1017.89 1018.36 1018.77 1019.23 1019.51 1019.96 1020.60 1020.88 1021.13 1021.88 1022.38 1023.22
1010.53 1010.60 1010.40 1009.49 1008.76 1008.53 1007.99 1006.55 1005.90 1005.43 1005.52 1005.67 1005.56 1006.01 1006.18 1005.77 1004.78 1005.97 1006.74 1007.39 1008.17 1009.15 1009.66 1010.11 1011.04 1012.07 1012.73 1013.88 1014.50 1015.30 1015.77 1016.27 1016.69 1016.73 1016.87 1017.04 1017.19 1017.69 1018.37 1018.79 1019.14 1019.40 1019.89 1020.45 1020.82 1021.46 1022.06 1023.24 1023.76
1010.32 1010.62 1010.20 1009.02 1008.40 1008.58 1008.04 1005.90 1005.80 1005.30 1004.43 1004.41 1004.56 1004.59 1005.05 1005.23 1005.38 1005.77 1006.19 1006.74 1007.09 1007.90 1009.15 1009.88 1010.56 1011.43 1012.17 1013.00 1013.85 1014.41 1015.72 1016.44 1016.62 1016.89 1017.07 1017.10 1017.53 1017.92 1018.33 1018.74 1019.15 1019.41 1019.85 1020.51 1020.97 1021.35 1022.54 1023.46 1023.85
1009.57 1009.82 1009.49 1009.14 1008.78 1008.52 1007.77 1005.32 1004.78 1004.46 1003.92 1003.74 1003.42 1003.56 1004.15 1004.43 1004.95 1005.63 1006.24 1006.43 1006.97 1007.66 1008.39 1009.11 1009.98 1010.95 1011.75 1012.77 1013.49 1014.71 1015.81 1016.62 1016.97 1017.07 1017.16 1017.56 1017.67 1018.02 1018.42 1018.94 1019.30 1019.63 1019.86 1020.44 1021.00 1021.46 1021.96 1023.14 1023.93
1008.68 1008.48 1008.52 1008.72 1009.06 1008.94 1007.50 1006.78 1003.18 1002.89 1002.89 1002.85 1003.03 1003.41 1003.32 1003.66 1004.22 1004.83 1005.45 1006.05 1006.37 1006.98 1007.96 1008.82 1009.60 1010.48 1011.52 1012.45 1013.27 1013.98 1014.63 1015.55 1016.33 1016.76 1017.00 1017.31 1017.67 1018.09 1018.45 1019.10 1019.46 1019.88 1020.25 1020.66 1021.15 1021.56 1022.04 1022.45 1023.45
1007.28 1007.59 1008.03 1008.39 1008.88 1009.20 1006.27 1007.67 1002.52 1002.61 1002.55 1002.96 1002.91 1003.04 1002.87 1003.13 1003.64 1003.98 1004.36 1004.71 1005.81 1006.99 1007.71 1008.61 1009.29 1010.26 1011.02 1012.19 1013.05 1013.84 1014.74 1015.25 1016.07 1017.01 1017.19 1017.60 1018.12 1018.36 1018.55 1018.98 1019.40 1020.01 1020.50 1021.05 1021.37 1021.70 1022.05 1022.47 1023.29
1007.04 1007.50 1007.91 1008.01 1008.58 1008.63 1005.12 1007.02 1003.47 1002.30 1002.08 1002.83 1002.94 1002.88 1002.77 1002.68 1002.92 1003.50 1004.17 1004.93 1005.48 1006.41 1007.26 1008.05 1008.92 1009.84 1010.76 1011.70 1012.92 1013.62 1014.29 1015.23 1016.06 1017.16 1017.43 1017.72 1018.32 1018.76 1018.90 1019.06 1019.51 1020.15 1020.70 1021.13 1021.49 1021.90 1022.32 1022.75 1023.22
1007.76 1008.23 1008.61 1008.71 1008.72 1006.80 1005.61 1005.53 1002.81 1001.32 1002.22 1002.89 1003.27 1003.08 1003.09 1002.94 1003.20 1003.42 1003.95 1004.53 1005.18 1005.72 1006.30 1007.42 1008.69 1009.78 1010.70 1011.54 1012.69 1013.70 1014.42 1015.09 1015.82 1016.33 1017.21 1017.63 1018.44 1019.04 1019.50 1019.64 1019.86 1020.32 1020.62 1021.14 1021.69 1022.40 1022.90 1023.24 1023.52
1008.81 1008.90 1009.25 1008.65 1008.08 1007.01 1006.00 1004.83 1002.91 1002.31 1002.36 1003.17 1003.56 1003.67 1003.71 1003.35 1003.24 1003.58 1004.05 1004.07 1004.53 1005.50 1006.32 1007.01 1008.04 1009.15 1010.24 1011.12 1012.25 1013.30 1014.02 1015.29 1016.11 1016.55 1017.10 1017.54 1018.15 1018.64 1019.29 1019.87 1020.18 1020.57 1020.76 1021.45 1022.07 1022.84 1023.41 1023.64 1023.82
1009.30 1009.38 1009.20 1009.05 1008.66 1008.04 1006.19 1004.19 1003.60 1002.56 1002.97 1003.43 1003.91 1004.08 1004.22 1004.04 1003.75 1003.92 1004.51 1005.23 1005.82 1006.11 1006.55 1006.77 1007.48 1008.85 1009.94 1010.75 1011.63 1012.84 1013.76 1014.83 1016.13 1016.83 1017.23 1017.77 1018.32 1018.95 1019.56 1020.02 1020.56 1021.05 1021.25 1021.84 1022.43 1022.97 1023.40 1023.84 1024.32
1009.94 1009.81 1009.47 1009.57 1008.89 1007.38 1006.13 1005.21 1003.68 1003.60 1003.92 1004.35 1004.83 1005.04 1004.61 1004.58 1004.66 1004.75 1005.07 1005.60 1006.06 1006.43 1006.92 1007.25 1008.01 1009.19 1009.33 1010.70 1011.79 1012.51 1013.12 1014.02 1015.22 1016.83 1017.30 1017.61 1018.85 1018.97 1019.91 1020.30 1020.74 1021.53 1021.73 1022.36 1022.61 1023.13 1023.75 1024.24 1024.96
1010.96 1011.18 1011.04 1010.73 1010.06 1008.56 1006.83 1005.58 1004.55 1004.64 1004.60 1004.65 1004.94 1004.88 1004.96 1004.87 1005.07 1005.35 1005.63 1005.61 1005.80 1006.34 1006.77 1007.27 1007.70 1009.18 1010.40 1010.65 1011.27 1012.59 1013.21 1014.08 1014.98 1016.10 1016.77 1017.84 1019.03 1019.40 1019.92 1020.41 1020.83 1022.00 1022.05 1022.38 1022.91 1023.56 1024.19 1024.80 1025.37
1011.02 1010.52 1011.13 1010.74 1009.81 1008.81 1007.08 1005.19 1005.01 1004.36 1004.03 1004.09 1004.63 1004.87 1004.93 1004.82 1004.40 1004.38 1004.83 1005.53 1005.68 1005.94 1006.39 1006.71 1007.56 1007.95 1009.16 1009.92 1011.63 1012.58 1013.19 1014.26 1015.58 1015.92 1016.54 1017.69 1019.25 1019.53 1020.05 1020.64 1021.02 1021.97 1022.41 1022.68 1023.15 1024.09 1024.75 1025.27 1025.79
Thickness
5737 5734 5734 5727 5699 5686 5681 5693 5712 5723 5735 5744 5743 5741 5738 5740 5742 5723 5746 5749 5751 5747 5744 5742 5738 5734 5730 5727 5725 5724 5724 5724 5723 5722 5720 5717 5714 5712 5709 5708 5707 5704 5702 5699 5697 5694 5691 5689 5688
5734 5731 5725 5708 5680 5668 5679 5706 5713 5728 5746 5740 5742 5738 5736 5737 5742 5738 5739 5742 5744 5743 5740 5737 5735 5732 5728 5723 5722 5720 5718 5717 5716 5714 5712 5710 5708 5706 5704 5702 5700 5697 5694 5692 5690 5687 5686 5684 5682
5734 5731 5711 5692 5663 5667 5678 5709 5716 5736 5744 5744 5734 5736 5734 5729 5736 5737 5738 5737 5737 5733 5732 5730 5729 5728 5725 5721 5718 5715 5713 5712 5709 5707 5705 5703 5701 5699 5697 5695 5693 5690 5688 5685 5684 5682 5681 5679 5677
5729 5719 5703 5687 5680 5686 5697 5718 5725 5732 5740 5746 5738 5727 5731 5731 5733 5733 5734 5732 5728 5726 5724 5724 5722 5719 5716 5714 5711 5708 5706 5705 5702 5699 5697 5696 5695 5695 5691 5689 5686 5683 5681 5679 5679 5678 5675 5675 5672
5721 5704 5686 5679 5682 5698 5709 5720 5726 5727 5735 5737 5736 5724 5723 5727 5729 5728 5727 5726 5723 5717 5714 5713 5710 5708 5706 5706 5703 5699 5698 5697 5695 5692 5689 5688 5686 5684 5681 5679 5679 5677 5675 5672 5672 5674 5669 5670 5665
5705 5694 5674 5669 5684 5703 5713 5724 5728 5732 5731 5729 5725 5717 5720 5724 5719 5717 5720 5716 5714 5714 5708 5706 5706 5701 5696 5695 5695 5692 5689 5688 5685 5683 5681 5679 5676 5674 5670 5669 5668 5668 5668 5666 5663 5665 5665 5663 5659
5699 5683 5675 5681 5685 5697 5714 5731 5725 5731 5729 5726 5727 5710 5712 5715 5719 5715 5710 5708 5705 5701 5703 5703 5698 5696 5692 5686 5685 5683 5682 5681 5678 5675 5672 5669 5665 5663 5661 5663 5661 5658 5654 5662 5653 5652 5659 5652 5653
5701 5687 5681 5681 5683 5693 5720 5726 5734 5727 5725 5727 5724 5712 5711 5717 5711 5706 5705 5701 5698 5694 5694 5692 5694 5689 5686 5681 5678 5676 5674 5673 5669 5664 5659 5656 5656 5658 5659 5657 5654 5648 5647 5646 5646 5648 5646 5646 5644
5711 5686 5668 5680 5684 5700 5716 5718 5731 5730 5718 5714 5716 5714 5715 5714 5705 5701 5697 5692 5689 5688 5685 5683 5679 5679 5678 5673 5670 5669 5667 5665 5659 5654 5652 5654 5653 5652 5651 5650 5647 5642 5636 5638 5645 5634 5635 5637 5637
5707 5686 5692 5704 5705 5707 5712 5707 5717 5716 5711 5710 5706 5708 5711 5709 5700 5695 5695 5693 5685 5679 5675 5672 5672 5669 5669 5668 5665 5661 5660 5657 5654 5651 5649 5648 5647 5646 5643 5640 5637 5632 5628 5632 5632 5628 5627 5628 5630
5701 5697 5704 5712 5713 5709 5710 5707 5713 5713 5704 5713 5709 5704 5702 5700 5698 5693 5689 5687 5686 5679 5670 5669 5665 5663 5661 5657 5657 5655 5651 5647 5645 5644 5643 5642 5639 5636 5634 5631 5625 5623 5620 5624 5623 5620 5620 5620 5620
5695 5705 5706 5712 5714 5711 5707 5713 5707 5706 5716 5723 5715 5705 5698 5696 5695 5694 5687 5685 5680 5676 5672 5664 5658 5656 5655 5654 5647 5645 5645 5641 5638 5637 5635 5633 5629 5626 5624 5617 5614 5613 5613 5613 5614 5611 5610 5611 5610
5692 5700 5702 5704 5703 5701 5704 5702 5703 5709 5716 5708 5703 5700 5696 5693 5693 5690 5688 5680 5674 5670 5666 5662 5657 5652 5653 5648 5644 5638 5634 5633 5631 5629 5627 5626 5620 5617 5612 5610 5605 5604 5603 5604 5603 5602 5601 5599 5597
5693 5693 5694 5697 5696 5697 5697 5700 5699 5710 5704 5698 5695 5693 5696 5696 5693 5687 5681 5678 5667 5664 5662 5654 5651 5649 5643 5645 5641 5634 5629 5625 5622 5619 5617 5614 5613 5608 5603 5602 5598 5597 5595 5593 5593 5593 5591 5586 5583
5684 5675 5681 5690 5693 5691 5692 5686 5689 5705 5699 5692 5686 5683 5683 5688 5687 5689 5683 5677 5669 5657 5650 5650 5642 5635 5631 5626 5625 5623 5619 5616 5612 5610 5607 5604 5603 5600 5595 5592 5589 5589 5586 5585 5584 5582 5579 5575 5570
5666 5663 5654 5682 5687 5693 5687 5667 5692 5697 5688 5687 5677 5675 5676 5677 5677 5679 5675 5671 5665 5659 5650 5641 5638 5632 5624 5619 5615 5611 5610 5606 5604 5602 5599 5596 5594 5590 5586 5582 5579 5578 5576 5575 5574 5571 5567 5562 5557
5646 5636 5641 5650 5675 5670 5670 5664 5685 5691 5681 5679 5677 5669 5668 5667 5668 5669 5664 5659 5654 5651 5642 5636 5630 5623 5618 5611 5604 5601 5597 5597 5592 5592 5592 5588 5583 5580 5577 5573 5570 5569 5566 5562 5560 5558 5558 5551 5542
5629 5627 5631 5628 5649 5651 5642 5658 5667 5674 5672 5672 5670 5665 5662 5664 5670 5659 5655 5651 5642 5640 5638 5631 5623 5612 5606 5602 5595 5587 5584 5581 5584 5579 5578 5579 5575 5570 5567 5565 5561 5559 5555 5551 5550 5549 5542 5538 5531
5633 5625 5618 5630 5637 5633 5634 5650 5662 5665 5660 5659 5663 5660 5658 5664 5677 5665 5657 5652 5644 5635 5631 5627 5615 5604 5598 5589 5581 5575 5571 5569 5566 5567 5566 5564 5564 5559 5555 5553 5552 5550 5547 5542 5540 5535 5531 5522 5518
5618 5610 5609 5626 5629 5617 5621 5647 5652 5656 5669 5665 5663 5665 5657 5657 5657 5657 5652 5646 5644 5637 5628 5620 5611 5601 5593 5586 5578 5573 5563 5557 5557 5555 5553 5554 5551 5548 5545 5543 5541 5539 5535 5531 5529 5528 5519 5511 5507
5611 5605 5609 5611 5617 5615 5613 5640 5653 5656 5659 5661 5664 5663 5660 5653 5649 5647 5640 5637 5634 5629 5623 5616 5607 5595 5587 5579 5572 5560 5551 5546 5545 5544 5545 5541 5540 5538 5535 5532 5530 5529 5527 5524 5520 5517 5514 5504 5496
5604 5613 5612 5607 5597 5588 5611 5592 5660 5663 5655 5658 5659 5655 5654 5651 5647 5643 5638 5631 5627 5621 5612 5606 5598 5588 5578 5571 5563 5558 5554 5547 5541 5538 5536 5533 5530 5527 5525 5521 5519 5517 5514 5512 5508 5505 5501 5498 5491
5616 5613 5604 5602 5587 5582 5618 5577 5648 5650 5644 5643 5644 5642 5646 5647 5638 5639 5637 5631 5620 5608 5601 5594 5585 5577 5570 5560 5553 5546 5541 5537 5532 5525 5523 5520 5517 5515 5514 5512 5510 5505 5502 5498 5496 5494 5491 5488 5482
5613 5602 5594 5588 5575 5563 5619 5577 5614 5640 5646 5636 5634 5634 5634 5635 5630 5625 5621 5614 5610 5597 5590 5584 5576 5568 5559 5550 5541 5536 5531 5525 5520 5513 5512 5510 5506 5505 5505 5505 5502 5497 5493 5490 5487 5484 5480 5477 5472
5590 5576 5554 5554 5549 5570 5603 5575 5606 5644 5637 5622 5618 5620 5617 5618 5616 5607 5603 5599 5593 5588 5583 5574 5563 5553 5546 5538 5529 5523 5517 5513 5509 5509 5502 5501 5496 5493 5491 5492 5491 5487 5485 5481 5477 5471 5467 5464 5461
5571 5565 5540 5539 5550 5559 5581 5552 5586 5610 5611 5599 5593 5595 5594 5592 5594 5591 5587 5585 5580 5572 5566 5560 5551 5542 5533 5526 5518 5512 5508 5497 5492 5492 5492 5491 5488 5487 5484 5480 5478 5475 5475 5470 5465 5459 5454 5451 5449
5549 5540 5548 5527 5530 5518 5546 5564 5575 5597 5588 5576 5566 5565 5563 5565 5568 5568 5562 5554 5548 5549 5545 5542 5537 5527 5519 5515 5509 5501 5493 5483 5477 5477 5478 5477 5476 5473 5470 5468 5465 5461 5461 5457 5453 5449 5445 5441 5436
5532 5535 5523 5516 5502 5505 5519 5527 5543 5551 5549 5544 5534 5523 5534 5538 5540 5539 5535 5531 5529 5527 5524 5521 5516 5507 5506 5499 5490 5486 5483 5478 5474 5466 5466 5468 5461 5464 5457 5457 5454 5448 5447 5443 5442 5438 5433 5429 5422
5517 5499 5500 5494 5492 5474 5473 5486 5525 5522 5525 5522 5514 5512 5508 5515 5515 5515 5512 5514 5516 5508 5506 5504 5499 5483 5480 5479 5479 5469 5474 5470 5468 5464 5462 5457 5451 5450 5448 5446 5445 5435 5436 5434 5431 5426 5422 5417 5411
5501 5498 5487 5462 5464 5473 5471 5467 5503 5507 5516 5509 5497 5494 5494 5497 5500 5502 5503 5496 5496 5495 5496 5495 5486 5490 5481 5478 5465 5462 5464 5459 5452 5456 5455 5450 5439 5440 5437 5434 5434 5428 5425 5423 5421 5414 5409 5404 5400